Location: Roncoferraro
(45.1333°N, 10.9500°E)
Time: 11:32:42
(UTC+00:00)

Daily predictions for brighter satellites

Satellite Brightness Start Highest point End
(mag) Time Altitude Azimuth Time Altitude Azimuth Time Altitude Azimuth
BREEZE-M DEB (TANK) 4.3 15:58:25 10° W 16:02:21 66° N 16:15:52 10° ENE
Cosmos 389 Rocket 2.3 16:01:59 10° S 16:05:22 75° E 16:08:47 10° NNE
Cosmos 2237 Rocket 3.0 15:59:55 10° SW 16:05:23 52° WNW 16:10:54 10° NNE
Cosmos 1666 Rocket 3.9 16:02:31 10° N 16:06:47 46° ENE 16:11:04 10° SSE
Cosmos 44 3.5 16:02:49 10° NNW 16:08:09 81° NE 16:13:35 10° SE
PSLV R/B 3.9 16:04:29 10° SSE 16:08:35 83° ENE 16:12:39 10° NNW
CZ-4B R/B 3.4 16:03:57 10° SE 16:09:00 48° ENE 16:14:05 10° N
H-2A R/B 2.4 16:07:38 10° SSE 16:11:50 67° ENE 16:15:54 10° N
MOS 1-B 4.4 16:08:27 10° SSE 16:14:15 83° ENE 16:20:06 10° NNW
Cosmos 2369 Rocket 2.9 16:10:31 10° N 16:15:38 33° NE 16:20:41 10° ESE
Cosmos 1943 Rocket 2.3 16:11:58 10° NNW 16:17:23 50° ENE 16:22:48 10° SE
ADEOS Rocket 3.7 16:10:03 10° NNE 16:17:52 86° WNW 16:25:33 10° SSW
NOAA 12 4.2 16:13:27 10° SSE 16:18:37 55° ENE 16:23:48 10° N
H-2A R/B 2.1 16:17:53 10° NNE 16:22:06 62° ESE 16:26:22 10° S
NOAA 6 4.2 16:20:12 10° SSE 16:25:21 81° WSW 16:30:31 10° NNW
Okean O Rocket 1.7 16:21:11 10° SSE 16:25:26 53° ENE 16:29:43 10° N
Cosmos 1782 3.6 16:22:51 10° SSE 16:26:18 29° E 16:29:48 10° NNE
Okean-O 4.3 16:25:06 10° E 16:27:23 14° ENE 16:29:40 10° NNE
CRYOSAT 2 4.4 16:24:42 10° N 16:29:38 84° E 16:34:32 10° S
H-2A R/B 4.0 16:26:17 10° S 16:29:59 45° W 16:33:45 10° NNW
ISS -2.3 16:27:49 10° WNW 16:30:43 26° N 16:32:58 14° NE
Cosmos 1633 Rocket 3.0 16:26:41 10° N 16:31:04 68° E 16:35:22 10° SSE
Cosmos 1933 3.3 16:27:52 10° S 16:31:54 76° E 16:35:59 10° NNE
Cosmos 2218 Rocket 3.9 16:31:25 10° N 16:37:33 65° E 16:43:39 10° SSE
Cosmos 2366 rocket 4.0 16:32:21 10° N 16:38:30 64° ENE 16:44:35 10° SSE
Cosmos 1867 4.5 16:33:42 10° WSW 16:38:54 45° NW 16:44:10 10° NNE
ERS-2 3.1 16:36:10 11° NE 16:39:07 28° E 16:42:19 10° SSE
Meteor 1-25 Rocket 4.2 16:33:41 10° N 16:39:21 80° E 16:45:04 10° SSE
Envisat 3.8 16:36:40 10° S 16:41:39 57° W 16:46:40 10° NNW
Lacrosse 5 rocket 2.2 16:44:14 10° W 16:47:38 35° NNW 16:50:15 15° NNE
Cosmos 773 Rocket 4.0 16:43:01 10° SSW 16:48:18 89° WNW 16:53:39 10° NNE
SL-23 DEB 4.1 16:45:27 10° SW 16:48:56 70° SE 16:52:39 18° ENE
YAOGAN 6 3.9 16:47:20 10° S 16:50:49 43° W 16:54:16 10° NNW
NOSS 3-2 (A) 4.2 16:46:07 10° S 16:50:50 29° ESE 16:54:01 18° ENE
FengYun 1-2 T 4.1 16:50:18 10° SSE 16:55:49 80° ENE 17:01:21 10° NNW
AQUARIUS 4.4 16:51:23 10° S 16:55:52 76° WSW 17:00:23 10° NNW
Feng Yun 1-1 Rocket 4.3 16:50:23 10° SE 16:55:58 56° ENE 17:01:25 10° N
OE (NEXTSAT) 4.2 16:53:18 10° W 16:56:46 78° N 16:58:30 27° E
SL-16 R/B 2.9 16:52:59 10° SW 16:58:31 54° WNW 17:04:04 10° NNE
CZ-4B R/B 1.2 16:56:26 17° NNE 16:58:40 58° E 17:01:48 10° S
BREEZE-M DEB (TANK) 1.7 17:00:47 10° WSW 17:03:06 59° NNW 17:03:26 47° NNE
USA 215 3.9 16:59:21 19° ENE 17:03:25 38° SE 17:09:25 10° SSW
SMAP 3.9 17:00:22 10° S 17:04:55 54° W 17:09:30 10° NNW
Cosmos 1500 3.6 17:02:59 10° N 17:06:37 39° ENE 17:10:13 10° SSE
YAOGAN 1 3.5 17:09:19 26° NE 17:09:19 26° NE 17:12:20 10° N
USA 238 DEB 4.2 17:03:57 10° S 17:09:53 38° ESE 17:13:06 24° ENE
USA 238 4.2 17:04:03 10° S 17:09:59 38° ESE 17:13:10 24° ENE
Cosmos 1656 Rocket 3.9 17:05:52 10° NNW 17:11:19 47° ENE 17:16:40 10° SE
Cosmos 1151 Rocket 3.9 17:07:56 10° SSW 17:12:05 50° WNW 17:16:15 10° N
SL-24 DEB 4.3 17:07:49 10° NNE 17:12:30 56° E 17:17:05 10° S
Cosmos 1470 Rocket 3.7 17:09:14 10° NNW 17:13:33 76° W 17:17:52 10° S
MOS 1 Rocket 4.2 17:13:25 24° NE 17:15:45 34° E 17:20:33 10° SSE
Cosmos 158 Rocket 4.2 17:14:46 10° S 17:19:26 42° ESE 17:20:54 33° ENE
Cosmos 1515 Rocket 3.6 17:15:39 10° S 17:20:02 84° WNW 17:24:29 10° N
Cosmos 2263 4.1 17:14:36 10° NNW 17:20:13 70° ENE 17:25:47 10° SSE
CZ-2C R/B 3.1 17:15:55 10° SE 17:20:38 45° ENE 17:25:13 10° N
SWAS 4.3 17:18:02 10° SSW 17:22:18 78° ESE 17:24:10 33° NE
Cosmos 1934 Rocket 4.5 17:16:32 10° N 17:22:22 36° ENE 17:28:06 10° SE
Cosmos 923 Rocket 4.2 17:17:49 10° S 17:22:47 48° ESE 17:24:50 31° NE
Cosmos 1238 Rocket 3.2 17:21:46 10° N 17:25:42 47° E 17:30:25 10° SSE
COSMO-SKYMED 1 2.4 17:23:06 18° NNE 17:26:20 76° ESE 17:30:40 10° S
Cosmos 1689 Rocket 3.9 17:29:01 21° S 17:29:01 21° S 17:30:10 10° S
USA 281 3.3 17:21:11 10° SE 17:27:28 52° ENE 17:33:49 10° NNW
Nadezhda 3 Rocket 4.0 17:23:05 10° S 17:29:21 64° E 17:35:38 10° NNE
X-37B 0.5 17:26:19 10° WSW 17:29:29 80° S 17:29:29 80° S
SAR-Lupe-4 3.4 17:29:13 54° NE 17:29:54 74° ESE 17:33:29 10° S
Helios 1A Rocket 3.7 17:33:25 35° NNE 17:33:25 35° NNE 17:36:02 10° N
Meteor 2-6 Rocket 4.0 17:26:53 10° S 17:32:26 71° E 17:37:15 13° NNE
Cosmos 2228 Rocket 3.0 17:28:08 10° S 17:32:37 65° E 17:34:29 33° NNE
Meteor 1-4 Rocket 4.1 17:30:50 10° SW 17:34:08 34° WNW 17:37:25 10° N
H-2A R/B 2.3 17:35:18 42° ENE 17:35:29 42° ENE 17:40:18 10° N
Cosmos 1812 2.5 17:32:38 10° S 17:36:27 71° E 17:36:35 70° ENE
USA 267 3.6 17:34:11 33° ENE 17:36:34 47° NNE 17:42:46 10° NW
Cosmos 1939 Rocket 3.3 17:34:18 10° S 17:38:08 60° W 17:42:03 10° NNW
Cosmos 1821 Rocket 3.9 17:32:09 10° N 17:38:26 79° E 17:44:46 10° SSE
CZ-4 R/B 4.4 17:35:46 10° SSE 17:39:54 87° W 17:44:04 10° NNW
CZ-4 R/B 1.9 17:41:27 44° N 17:41:27 44° N 17:44:22 10° N
Meteor 1-11 Rocket 3.8 17:35:50 10° N 17:41:32 54° ENE 17:47:17 10° SSE
NOSS 3-3 (A) 4.5 17:35:01 10° NW 17:42:27 68° NE 17:47:58 23° SE
NOSS 3-3 (C) 4.5 17:35:05 10° NW 17:42:33 67° NE 17:47:58 24° SE
PSLV R/B 3.7 17:42:20 69° NE 17:42:43 77° ESE 17:46:45 10° S
CSL-04 Rocket 4.2 17:44:05 38° NE 17:44:05 38° NE 17:47:58 10° N
BREEZE-M DEB (TANK) 3.3 17:40:15 10° SW 17:42:53 29° S 17:42:53 29° S
Cosmos 1933 Rocket 4.3 17:39:14 10° NNW 17:43:35 53° W 17:47:55 10° S
Cosmos 44 Rocket 3.3 17:38:42 10° NNW 17:43:52 67° NE 17:45:09 49° ESE
IRS-1C Rocket 4.2 17:39:07 10° S 17:44:24 76° WSW 17:49:42 10° NNW
SAR-Lupe-1 4.2 17:46:35 67° NW 17:46:52 71° WNW 17:50:25 10° SSW
Lacrosse 4 Rocket 3.2 17:45:32 10° S 17:46:59 20° SSE 17:46:59 20° SSE
Cosmos 1680 Rocket 3.4 17:44:25 10° S 17:49:37 64° ESE 17:50:19 57° ENE
SL-24 R/B 4.0 17:49:33 46° NNW 17:50:26 63° WNW 17:54:02 10° SSW
Cosmos 1603 3.9 17:48:24 10° SW 17:54:00 69° WNW 17:56:56 29° NNE
CZ-2D R/B 3.9 17:51:16 10° S 17:55:01 54° W 17:58:48 10° NNW
Cosmos 1943 3.3 17:51:43 10° SSW 17:57:22 74° WNW 17:59:58 34° NNE
Cosmos 2369 Rocket 3.3 17:54:26 10° NW 17:59:47 43° WSW 18:05:05 10° S
Cosmos 1943 Rocket 4.3 17:56:18 10° NW 18:00:49 26° WSW 18:05:20 10° SSW
Okean-O 2.8 17:58:53 10° S 18:03:17 71° WSW 18:07:44 10° NNW
Cosmos 1461 4.0 17:59:42 10° SSW 18:02:44 39° S 18:02:44 39° S
Cosmos 1371 Rocket 4.5 17:59:57 10° NNW 18:03:40 45° N 18:03:40 45° N
ARGOS 4.3 18:08:31 30° N 18:08:31 30° N 18:11:15 10° N
CENTAUR R/B 2.4 18:01:49 10° SSW 18:07:31 62° ESE 18:07:44 62° ESE
ISS -1.3 18:04:49 10° NW 18:05:55 18° NW 18:05:55 18° NW
Cosmos 2112 Rocket 3.9 18:04:55 10° SSW 18:09:53 77° SSE 18:09:53 77° SSE
Cosmos 2056 Rocket 4.3 18:06:08 10° NNW 18:09:29 38° N 18:09:29 38° N
NOSS 3-2 (C) 3.3 18:10:07 10° SSW 18:15:10 65° SSE 18:15:10 65° SSE
Cosmos 1869 Rocket 4.3 18:13:57 10° NNW 18:22:43 10° S 18:17:48 52° WNW
BREEZE-M DEB (TANK) 3.7 18:13:57 10° WSW 18:19:59 56° WSW 18:19:59 56° WSW
Meteor 1-27 Rocket 3.8 18:15:36 10° S 18:20:11 63° S 18:20:11 63° S
Lacrosse 5 rocket 4.0 18:25:40 10° NW 18:25:53 11° NW 18:25:53 11° NW
NOSS 3-2 (A) 3.8 18:35:34 10° WSW 18:41:11 56° NW 18:41:27 55° NW
USA 215 3.3 18:46:42 72° NNW 18:46:42 72° NNW 18:53:13 10° WSW
USA 238 DEB 4.2 18:54:11 10° WSW 19:00:35 52° NW 19:00:35 52° NW
USA 238 4.2 18:54:16 10° WSW 19:00:39 52° NW 19:00:39 52° NW
H-2A R/B 4.0 19:15:55 25° WNW 19:15:55 25° WNW 19:19:22 10° NW
USA 267 4.1 19:21:32 45° WNW 19:21:32 45° WNW 19:25:56 10° NW
